User: anonymous   Login
Location: ??????
(38.1303°N, 24.0039°E)
Time: 16:58:40
(UTC+00:00)
Language:

Meteor 2-21 - Orbit

View from above orbital plane
View from above orbital plane
View from above satellite
View from above satellite

Ground track
Ground track

The orbit data is extracted from the following two-line orbital elements,

1 22782U 93055A   21259.41911507  .00000041  00000-0  23652-4 0  9997
2 22782  82.5479 231.7062 0023309  39.3209 125.6799 13.83837594416373
Epoch (UTC): 16 September 2021 10:03:31
Eccentricity: 0.0023309
inclination: 82.5479°
perigee height: 933 km
apogee height: 967 km
right ascension of ascending node: 231.7062°
argument of perigee: 39.3209°
revolutions per day: 13.83837594
mean anomaly at epoch: 125.6799°
orbit number at epoch: 41637

The dashed part of the orbit path shows where the satellite is in the earth's shadow,  

DLR